"Timestamp","TZ","WindDir_Mean (deg)","WindSpd_Mean (km/h)","WindSpd_Min (km/h)","WindSpd_Max (km/h)","Temp_Mean (deg)","RH_Mean (%)","MSLP_Mean (hPa)","Rain_Acc (mm)","Rain_Intensity (mm/h)","Hail_Acc (hits/cm2)","Hail_Intensity (hits/cm2hr)","Solar_Mean (W/m2)"
2018/02/20 00:00:00.014,n,146,12.96,11.88,14.04,25.3,65.199996,1011.72,0,0,0,0,0.039139
2018/02/20 00:01:00.000,n,152,10.08,9.36,11.52,25.3,65.5,1011.72,0,0,0,0,0.039139
2018/02/20 00:02:00.000,n,168,5.4,4.68,6.12,25.3,65.6,1011.72,0,0,0,0,0.033913
2018/02/20 00:03:00.000,n,165,4.68,3.6,5.04,25.3,65.6,1011.72,0,0,0,0,0.033913
2018/02/20 00:04:00.003,n,172,1.08,0.36,1.8,25.3,65.6,1011.72,0,0,0,0,0.033073
2018/02/20 00:05:00.000,n,146,3.6,1.08,5.04,25.3,65.5,1011.72,0,0,0,0,0.033073
2018/02/20 00:06:00.000,n,176,5.04,4.32,5.4,25.3,65.4,1011.72,0,0,0,0,0.033913
2018/02/20 00:07:00.010,n,266,1.44,1.44,1.8,25.3,65.6,1011.72,0,0,0,0,0.032196
2018/02/20 00:08:00.008,n,212,2.52,2.16,2.88,25.4,65.6,1011.72,0,0,0,0,0.033913
2018/02/20 00:09:00.004,n,179,6.84,6.12,7.56,25.4,65.4,1011.72,0,0,0,0,0.032196
2018/02/20 00:10:00.002,n,122,5.76,3.6,7.92,25.4,64.699996,1011.62,0,0,0,0,0.032196
2018/02/20 00:11:00.000,n,149,4.68,3.96,5.04,25.3,65,1011.62,0,0,0,0,0.031281
2018/02/20 00:12:00.000,n,140,8.64,7.92,9,25.3,64.699996,1011.62,0,0,0,0,0.031281
2018/02/20 00:13:00.000,n,158,8.28,4.68,10.440002,25.3,64.9,1011.62,0,0,0,0,0.032196
2018/02/20 00:14:00.007,n,167,7.2,6.48,7.92,25.3,64.300004,1011.62,0,0,0,0,0.032196
2018/02/20 00:15:00.004,n,173,6.12,5.4,7.2,25.3,64.5,1011.52,0,0,0,0,0.035667
2018/02/20 00:16:00.001,n,180,5.04,3.96,6.48,25.3,64.6,1011.52,0,0,0,0,0.031281
2018/02/20 00:17:00.014,n,184,10.08,9.72,10.440002,25.3,64.300004,1011.52,0,0,0,0,0.032196
2018/02/20 00:18:00.012,n,151,6.84,6.48,7.92,25.4,64.4,1011.52,0,0,0,0,0.032196
2018/02/20 00:19:00.000,n,162,10.08,8.28,10.8,25.4,64.300004,1011.52,0,0,0,0,0.033073
2018/02/20 00:20:00.000,n,184,6.12,5.4,7.92,25.3,63.9,1011.42,0,0,0,0,0.035667
2018/02/20 00:21:00.000,n,144,10.08,2.88,11.88,25.3,64.1,1011.42,0,0,0,0,0.030441
2018/02/20 00:22:00.005,n,158,10.8,10.8,11.52,25.3,63.7,1011.42,0,0,0,0,0.029564
2018/02/20 00:23:00.003,n,178,4.68,3.96,5.04,25.3,64.1,1011.42,0,0,0,0,0.035667
2018/02/20 00:24:00.000,n,149,9,8.28,9.72,25.3,64,1011.42,0,0,0,0,0.031281
2018/02/20 00:25:00.000,n,145,7.92,7.2,8.64,25.3,64.199996,1011.42,0,0,0,0,0.031281
2018/02/20 00:26:00.009,n,172,5.04,4.68,5.04,25.3,64.4,1011.32,0,0,0,0,0.027847
2018/02/20 00:27:00.007,n,158,4.68,4.32,5.04,25.3,64.4,1011.32,0,0,0,0,0.031281
2018/02/20 00:28:00.000,n,177,6.84,6.48,7.56,25.3,64.5,1011.22,0,0,0,0,0.031281
2018/02/20 00:29:00.000,n,164,5.76,4.32,6.84,25.2,64.6,1011.22,0,0,0,0,0.031281
2018/02/20 00:30:00.000,n,161,3.6,3.24,3.6,25.2,64.800004,1011.22,0,0,0,0,0.027847
2018/02/20 00:31:00.000,n,177,4.68,3.96,5.4,25.2,64.800004,1011.22,0,0,0,0,0.030441
2018/02/20 00:32:00.008,n,134,4.32,3.6,5.04,25.2,64.800004,1011.12,0,0,0,0,0.032196
2018/02/20 00:33:00.005,n,164,5.4,5.4,5.76,25.2,64.699996,1011.12,0,0,0,0,0.02697
2018/02/20 00:34:00.003,n,137,4.32,3.96,5.04,25.2,64.800004,1011.12,0,0,0,0,0.035667
2018/02/20 00:35:00.000,n,147,3.96,2.88,4.68,25.2,64.800004,1011.12,0,0,0,0,0.029564
2018/02/20 00:36:00.013,n,154,4.32,3.96,5.04,25.2,64.9,1011.12,0,0,0,0,0.031281
2018/02/20 00:37:00.000,n,135,3.24,2.52,3.96,25.2,65,1011.02,0,0,0,0,0.029564
2018/02/20 00:38:00.000,n,166,3.6,3.6,4.32,25.2,64.9,1011.02,0,0,0,0,0.032196
2018/02/20 00:39:00.000,n,170,5.4,4.68,5.76,25.2,65,1011.02,0,0,0,0,0.033913
2018/02/20 00:40:00.004,n,185,5.76,5.04,6.48,25.2,65.1,1011.02,0,0,0,0,0.026054
2018/02/20 00:41:00.000,n,151,6.12,5.76,6.12,25.2,65.300004,1011.02,0,0,0,0,0.02697
2018/02/20 00:42:00.000,n,142,6.48,5.76,6.84,25.1,65,1010.92,0,0,0,0,0.028687
2018/02/20 00:43:00.013,n,168,4.32,3.96,4.68,25.1,64.800004,1010.92,0,0,0,0,0.027847
2018/02/20 00:44:00.010,n,139,3.6,3.24,4.32,25.1,64.9,1010.92,0,0,0,0,0.026054
2018/02/20 00:45:00.006,n,129,3.24,2.88,3.24,25.1,65,1010.92,0,0,0,0,0.02697
2018/02/20 00:46:00.000,n,168,3.24,2.52,3.6,25.1,64.9,1010.92,0,0,0,0,0.027847
2018/02/20 00:47:00.001,n,165,7.92,7.56,8.28,25.1,64.699996,1010.92,0,0,0,0,0.025215
2018/02/20 00:48:00.000,n,150,9.36,7.92,10.8,25.1,64.5,1010.82,0,0,0,0,0.026054
2018/02/20 00:49:00.000,n,162,5.4,4.68,6.48,25.1,64.699996,1010.82,0,0,0,0,0.027847
2018/02/20 00:50:00.008,n,182,6.84,6.12,7.56,25.1,64,1010.82,0,0,0,0,0.030441
2018/02/20 00:51:00.005,n,157,6.12,5.4,6.84,25.1,64.300004,1010.82,0,0,0,0,0.029564
2018/02/20 00:52:00.003,n,149,4.32,3.96,4.68,25.1,64.199996,1010.82,0,0,0,0,0.030441
2018/02/20 00:53:00.000,n,135,5.76,5.04,6.12,25.1,64,1010.82,0,0,0,0,0.02697
2018/02/20 00:54:00.012,n,147,5.76,4.68,6.12,25.1,64.1,1010.82,0,0,0,0,0.027847
2018/02/20 00:55:00.000,n,174,5.04,3.96,5.4,25.1,64,1010.72,0,0,0,0,0.028687
2018/02/20 00:56:00.000,n,142,3.6,3.24,4.32,25.1,64.1,1010.72,0,0,0,0,0.027847
2018/02/20 00:57:00.004,n,107,2.52,2.52,2.88,25.1,64,1010.72,0,0,0,0,0.030441
2018/02/20 00:58:00.002,n,129,5.04,2.52,6.84,25.1,63.9,1010.62,0,0,0,0,0.027847
2018/02/20 00:59:00.000,n,154,5.76,5.04,6.12,25.1,63.7,1010.62,0,0,0,0,0.028687
2018/02/20 01:00:00.000,n,137,4.32,3.96,5.04,25.1,63.7,1010.52,0,0,0,0,0.026054
2018/02/20 01:01:00.010,n,109,5.76,5.04,6.84,25,63.9,1010.52,0,0,0,0,0.027847
2018/02/20 01:02:00.007,n,126,4.32,3.24,5.4,25,63.7,1010.52,0,0,0,0,0.025215
2018/02/20 01:03:00.004,n,99,4.68,3.6,5.4,25,63.6,1010.42,0,0,0,0,0.020866
2018/02/20 01:04:00.002,n,69,2.52,2.16,3.24,25,63.7,1010.42,0,0,0,0,0.02346
2018/02/20 01:05:00.000,n,117,4.32,3.24,5.4,25,63.3,1010.42,0,0,0,0,0.02697
2018/02/20 01:06:00.000,n,136,8.28,7.56,8.64,25,63.5,1010.42,0,0,0,0,0.032196
2018/02/20 01:07:00.000,n,135,4.32,3.6,5.04,25,63.6,1010.42,0,0,0,0,0.025215
2018/02/20 01:08:00.008,n,117,5.04,4.68,5.4,25,63.8,1010.42,0,0,0,0,0.02346
2018/02/20 01:09:00.005,n,120,4.68,3.6,5.04,25,63.8,1010.42,0,0,0,0,0.02697
2018/02/20 01:10:00.002,n,145,6.48,5.4,7.56,25,63.5,1010.42,0,0,0,0,0.02346
2018/02/20 01:11:00.000,n,120,1.8,1.08,2.52,25,63.6,1010.42,0,0,0,0,0.02346
2018/02/20 01:12:00.013,n,123,5.04,4.68,5.04,25,63.6,1010.32,0,0,0,0,0.022621
2018/02/20 01:13:00.000,n,113,1.8,1.08,2.16,25,63.8,1010.32,0,0,0,0,0.028687
2018/02/20 01:14:00.000,n,134,6.84,5.76,7.56,25,63.5,1010.22,0,0,0,0,0.027847
2018/02/20 01:15:00.004,n,148,5.4,5.04,5.76,25,63.6,1010.22,0,0,0,0,0.022621
2018/02/20 01:16:00.001,n,111,5.76,4.68,7.2,25,63.4,1010.22,0,0,0,0,0.022621
2018/02/20 01:17:00.000,n,116,9,8.28,9.36,24.9,63.4,1010.12,0,0,0,0,0.026054
2018/02/20 01:18:00.000,n,168,1.44,1.44,1.8,25,63.4,1010.12,0,0,0,0,0.02697
2018/02/20 01:19:00.008,n,133,4.32,3.96,5.04,24.9,63.4,1010.12,0,0,0,0,0.030441
2018/02/20 01:20:00.005,n,145,4.32,3.96,4.68,24.9,63.3,1010.02,0,0,0,0,0.020866
2018/02/20 01:21:00.002,n,136,3.96,3.24,4.32,24.9,63.5,1010.02,0,0,0,0,0.024338
2018/02/20 01:22:00.000,n,103,3.6,3.24,3.96,24.9,63.6,1010.02,0,0,0,0,0.025215
2018/02/20 01:23:00.000,n,142,3.96,3.24,4.32,24.9,63.5,1010.02,0,0,0,0,0.021744
2018/02/20 01:24:00.000,n,86,3.6,3.24,3.96,24.9,63.4,1010.02,0,0,0,0,0.022621
2018/02/20 01:25:00.000,n,122,5.04,4.32,5.4,24.9,63.3,1010.02,0,0,0,0,0.020866
2018/02/20 01:26:00.005,n,126,2.88,2.52,3.24,24.9,63,1009.92,0,0,0,0,0.024338
2018/02/20 01:27:00.001,n,145,1.44,1.08,1.8,24.9,63.1,1009.92,0,0,0,0,0.028687
2018/02/20 01:28:00.000,n,136,5.04,3.96,6.12,24.9,62.9,1009.92,0,0,0,0,0.02346
2018/02/20 01:29:00.012,n,118,5.4,5.04,6.12,24.9,63,1009.92,0,0,0,0,0.019112
2018/02/20 01:30:00.009,n,133,7.2,6.48,7.56,24.9,62.5,1009.82,0,0,0,0,0.022621
2018/02/20 01:31:00.000,n,132,6.48,5.76,6.84,24.9,62.7,1009.82,0,0,0,0,0.019989
2018/02/20 01:32:00.003,n,116,3.6,3.6,3.96,24.9,63,1009.82,0,0,0,0,0.020866
2018/02/20 01:33:00.000,n,146,2.88,2.52,3.6,24.9,63.1,1009.82,0,0,0,0,0.021744
2018/02/20 01:34:00.000,n,136,6.12,4.68,6.84,24.9,63.1,1009.72,0,0,0,0,0.029564
2018/02/20 01:35:00.000,n,85,3.6,3.24,3.6,24.8,63.1,1009.72,0,0,0,0,0.019989
2018/02/20 01:36:00.007,n,121,3.6,2.16,4.32,24.8,63.3,1009.72,0,0,0,0,0.018272
2018/02/20 01:37:00.004,n,121,3.96,3.6,3.96,24.8,63.1,1009.72,0,0,0,0,0.020866
2018/02/20 01:38:00.001,n,114,2.52,2.52,2.88,24.8,63.4,1009.62,0,0,0,0,0.017395
2018/02/20 01:39:00.014,n,120,5.76,4.68,6.12,24.8,62.9,1009.62,0,0,0,0,0.02346
2018/02/20 01:40:00.000,n,119,6.84,5.76,7.92,24.8,63.1,1009.62,0,0,0,0,0.019989
2018/02/20 01:41:00.000,n,133,7.2,6.84,7.56,24.8,63.2,1009.62,0,0,0,0,0.022621
2018/02/20 01:42:00.000,n,122,5.76,5.04,6.48,24.8,63.4,1009.52,0,0,0,0,0.025253
2018/02/20 01:43:00.000,n,129,4.68,4.32,5.4,24.8,62.9,1009.52,0,0,0,0,0.027847
2018/02/20 01:44:00.000,n,145,7.56,6.84,7.92,24.8,62.8,1009.52,0,0,0,0,0.026131
2018/02/20 01:45:00.010,n,112,3.6,2.16,3.96,24.8,62.8,1009.52,0,0,0,0,0.030441
2018/02/20 01:46:00.007,n,121,8.64,7.92,9.36,24.7,62.1,1009.42,0,0,0,0,0.027847
2018/02/20 01:47:00.005,n,83,3.24,2.88,3.96,24.7,62.8,1009.42,0,0,0,0,0.027847
2018/02/20 01:48:00.002,n,135,5.4,4.68,6.12,24.8,62.7,1009.42,0,0,0,0,0.030441
2018/02/20 01:49:00.000,n,114,3.24,2.88,3.24,24.8,62.7,1009.42,0,0,0,0,0.026131
2018/02/20 01:50:00.000,n,149,2.88,2.52,3.24,24.7,62.8,1009.52,0,0,0,0,0.024376
2018/02/20 01:51:00.000,n,116,3.96,3.6,4.68,24.7,62.7,1009.52,0,0,0,0,0.026131
2018/02/20 01:52:00.000,n,127,5.76,4.32,7.2,24.7,62.5,1009.52,0,0,0,0,0.026131
2018/02/20 01:53:00.007,n,138,5.76,4.68,6.48,24.7,62.4,1009.52,0,0,0,0,0.027847
2018/02/20 01:54:00.003,n,146,6.84,5.76,7.56,24.7,62.1,1009.52,0,0,0,0,0.030441
2018/02/20 01:55:00.002,n,137,6.48,6.12,6.48,24.7,61.9,1009.52,0,0,0,0,0.026131
2018/02/20 01:56:00.000,n,159,7.2,6.48,7.56,24.7,62,1009.52,0,0,0,0,0.025253
2018/02/20 01:57:00.012,n,176,7.56,7.2,7.92,24.7,62.2,1009.52,0,0,0,0,0.026131
2018/02/20 01:58:00.000,n,167,4.32,3.96,4.32,24.7,62.3,1009.52,0,0,0,0,0.028725
2018/02/20 01:59:00.000,n,175,4.32,3.6,5.76,24.7,62.1,1009.52,0,0,0,0,0.02697
2018/02/20 02:00:00.006,n,140,6.84,6.12,7.92,24.7,62.3,1009.52,0,0,0,0,0.026131
2018/02/20 02:01:00.004,n,157,7.56,7.2,7.56,24.7,62.1,1009.62,0,0,0,0,0.027847
2018/02/20 02:02:00.001,n,146,7.2,7.2,7.92,24.7,62.1,1009.62,0,0,0,0,0.027847
2018/02/20 02:03:00.000,n,179,5.4,4.68,6.12,24.7,62.3,1009.62,0,0,0,0,0.021782
2018/02/20 02:04:00.012,n,183,6.84,6.48,6.84,24.7,62.2,1009.72,0,0,0,0,0.022621
2018/02/20 02:05:00.009,n,182,3.6,2.88,4.32,24.7,62.2,1009.72,0,0,0,0,0.026131
2018/02/20 02:06:00.006,n,145,5.04,4.32,5.76,24.7,62.4,1009.72,0,0,0,0,0.025253
2018/02/20 02:07:00.000,n,137,3.96,3.6,4.32,24.7,62.4,1009.62,0,0,0,0,0.020905
2018/02/20 02:08:00.000,n,138,6.12,5.04,7.2,24.7,62.2,1009.62,0,0,0,0,0.024376
2018/02/20 02:09:00.000,n,164,6.84,5.04,7.56,24.7,61.9,1009.62,0,0,0,0,0.021782
2018/02/20 02:10:00.000,n,110,3.96,1.44,5.76,24.6,62,1009.52,0,0,0,0,0.025253
2018/02/20 02:11:00.008,n,119,3.96,3.24,4.68,24.6,62.2,1009.52,0,0,0,0,0.01915
2018/02/20 02:12:00.005,n,178,1.44,0,3.6,24.6,62.3,1009.62,0,0,0,0,0.022621
2018/02/20 02:13:00.002,n,110,4.32,3.24,5.4,24.6,62.5,1009.62,0,0,0,0,0.022621
2018/02/20 02:14:00.000,n,138,5.04,4.32,6.12,24.6,62.2,1009.62,0,0,0,0,0.020905
2018/02/20 02:15:00.014,n,143,4.68,4.32,5.4,24.6,62.2,1009.62,0,0,0,0,0.020905
2018/02/20 02:16:00.000,n,129,4.32,3.96,5.04,24.6,62.3,1009.62,0,0,0,0,0.024376
2018/02/20 02:17:00.000,n,136,4.32,3.96,4.32,24.6,62.3,1009.62,0,0,0,0,0.01915
2018/02/20 02:18:00.000,n,145,2.88,2.16,3.6,24.6,62.4,1009.62,0,0,0,0,0.022621
2018/02/20 02:19:00.002,n,87,2.52,1.8,3.24,24.6,62.6,1009.62,0,0,0,0,0.024376
2018/02/20 02:20:00.000,n,153,6.84,5.4,7.56,24.6,62.6,1009.62,0,0,0,0,0.020905
2018/02/20 02:21:00.000,n,161,4.32,3.6,5.76,24.5,62.5,1009.62,0,0,0,0,0.021782
2018/02/20 02:22:00.010,n,159,5.76,3.6,6.84,24.5,62.6,1009.72,0,0,0,0,0.021782
2018/02/20 02:23:00.007,n,161,7.92,7.2,8.28,24.5,62.7,1009.72,0,0,0,0,0.021782
2018/02/20 02:24:00.005,n,196,5.4,4.68,6.48,24.5,62.8,1009.82,0,0,0,0,0.020905
2018/02/20 02:25:00.000,n,173,6.48,3.24,8.28,24.6,62.5,1009.82,0,0,0,0,0.021782
2018/02/20 02:26:00.000,n,164,3.24,2.16,5.04,24.6,62.5,1009.82,0,0,0,0,0.024376
2018/02/20 02:27:00.000,n,186,3.96,1.8,5.04,24.6,62.3,1009.82,0,0,0,0,0.01915
2018/02/20 02:28:00.000,n,193,3.24,0.36,5.4,24.6,62.1,1009.82,0,0,0,0,0.017395
2018/02/20 02:29:00.008,n,126,5.76,5.04,6.48,24.7,62.1,1009.82,0,0,0,0,0.020027
2018/02/20 02:30:00.005,n,181,2.88,1.08,4.32,24.7,61.9,1009.82,0,0,0,0,0.021782
2018/02/20 02:31:00.001,n,164,9.72,9.36,10.08,24.7,61.6,1009.82,0,0,0,0,0.020027
2018/02/20 02:32:00.000,n,125,6.48,5.4,7.56,24.7,61.7,1009.82,0,0,0,0,0.020905
2018/02/20 02:33:00.012,n,135,8.28,7.2,9.72,24.7,61.6,1009.82,0,0,0,0,0.014801
2018/02/20 02:34:00.000,n,151,8.28,6.84,10.08,24.7,61.9,1009.82,0,0,0,0,0.028725
2018/02/20 02:35:00.000,n,135,5.4,4.68,6.48,24.7,61.8,1009.82,0,0,0,0,0.032196
2018/02/20 02:36:00.000,n,179,1.8,0.36,3.6,24.6,62,1009.82,0,0,0,0,0.030441
2018/02/20 02:37:00.002,n,187,6.48,5.4,7.56,24.6,61.8,1009.72,0,0,0,0,0.033951
2018/02/20 02:38:00.000,n,145,7.2,6.12,7.92,24.6,61.9,1009.72,0,0,0,0,0.033951
2018/02/20 02:39:00.000,n,130,4.32,1.8,6.48,24.6,61.7,1009.72,0,0,0,0,0.031319
2018/02/20 02:40:00.010,n,129,6.12,5.4,7.2,24.6,61.5,1009.72,0,0,0,0,0.032196
2018/02/20 02:41:00.008,n,142,6.48,4.68,8.28,24.6,61.7,1009.82,0,0,0,0,0.030441
2018/02/20 02:42:00.005,n,166,2.52,0.72,3.96,24.6,61.9,1009.82,0,0,0,0,0.029564
2018/02/20 02:43:00.001,n,146,6.84,5.04,7.56,24.6,62,1009.82,0,0,0,0,0.028725
2018/02/20 02:44:00.000,n,122,7.92,6.84,8.64,24.6,61.7,1009.82,0,0,0,0,0.031319
2018/02/20 02:45:00.000,n,126,9.72,9.36,10.08,24.6,61.6,1009.82,0,0,0,0,0.030441
2018/02/20 02:46:00.000,n,146,3.96,3.6,4.68,24.6,61.8,1009.82,0,0,0,0,0.033073
2018/02/20 02:47:00.006,n,161,8.28,7.92,8.64,24.6,61.7,1009.82,0,0,0,0,0.029564
2018/02/20 02:48:00.003,n,122,2.88,0.72,3.6,24.6,61.8,1009.82,0,0,0,0,0.029564
2018/02/20 02:49:00.000,n,181,5.4,3.96,6.12,24.6,61.8,1009.82,0,0,0,0,0.033073
2018/02/20 02:50:00.014,n,95,3.24,2.16,3.96,24.6,61.9,1009.82,0,0,0,0,0.032196
2018/02/20 02:51:00.012,n,128,7.2,5.76,8.64,24.6,61.9,1009.82,0,0,0,0,0.033073
2018/02/20 02:52:00.000,n,163,4.32,3.96,5.4,24.6,61.8,1009.82,0,0,0,0,0.030441
2018/02/20 02:53:00.000,n,129,6.48,5.4,7.2,24.6,61.9,1009.82,0,0,0,0,0.033951
2018/02/20 02:54:00.003,n,167,4.32,3.96,4.68,24.6,62,1009.82,0,0,0,0,0.032196
2018/02/20 02:55:00.000,n,165,6.12,5.4,6.48,24.6,61.7,1009.92,0,0,0,0,0.035667
2018/02/20 02:56:00.000,n,169,7.2,5.4,8.64,24.6,61.5,1009.92,0,0,0,0,0.033073
2018/02/20 02:57:00.011,n,139,3.6,1.44,5.4,24.6,61.6,1009.92,0,0,0,0,0.030441
2018/02/20 02:58:00.008,n,173,7.2,6.48,7.56,24.6,61.6,1009.92,0,0,0,0,0.029564
2018/02/20 02:59:00.004,n,258,0.72,0.36,1.08,24.6,61.6,1009.92,0,0,0,0,0.031319
2018/02/20 03:00:00.002,n,183,6.84,6.12,7.2,24.6,61.4,1009.92,0,0,0,0,0.030441
2018/02/20 03:01:00.000,n,147,9,7.92,9.72,24.6,61.4,1009.92,0,0,0,0,0.032196
2018/02/20 03:02:00.000,n,174,7.92,5.76,9,24.6,61.3,1009.92,0,0,0,0,0.027847
2018/02/20 03:03:00.000,n,152,3.96,2.52,6.48,24.6,61.4,1009.92,0,0,0,0,0.02697
2018/02/20 03:04:00.000,n,163,6.12,4.68,6.84,24.6,61.6,1009.92,0,0,0,0,0.024376
2018/02/20 03:05:00.005,n,166,7.56,6.84,8.64,24.6,61.4,1009.92,0,0,0,0,0.027847
2018/02/20 03:06:00.001,n,159,10.08,9.72,10.440002,24.6,61.4,1009.92,0,0,0,0,0.028725
2018/02/20 03:07:00.000,n,162,5.04,3.96,5.4,24.6,61.6,1010.02,0,0,0,0,0.029564
2018/02/20 03:08:00.013,n,166,5.04,3.6,6.12,24.6,61.6,1010.02,0,0,0,0,0.033951
2018/02/20 03:09:00.010,n,203,3.6,2.88,4.68,24.6,61.5,1010.02,0,0,0,0,0.029564
2018/02/20 03:10:00.000,n,139,6.48,4.68,8.28,24.7,61.2,1010.02,0,0,0,0,0.031319
2018/02/20 03:11:00.000,n,165,5.76,1.08,7.92,24.7,60.9,1010.02,0,0,0,0,0.028725
2018/02/20 03:12:00.002,n,141,3.6,0.72,6.12,24.7,60.9,1010.02,0,0,0,0,0.02697
2018/02/20 03:13:00.000,n,193,4.68,4.32,5.4,24.7,61,1010.02,0,0,0,0,0.029564
2018/02/20 03:14:00.000,n,142,5.04,4.68,5.4,24.7,61.1,1010.12,0,0,0,0,0.029564
2018/02/20 03:15:00.011,n,187,5.76,5.04,6.48,24.7,61.1,1010.12,0,0,0,0,0.023499
2018/02/20 03:16:00.007,n,119,4.68,2.88,8.28,24.7,61,1010.12,0,0,0,0,0.028725
2018/02/20 03:17:00.004,n,190,6.12,5.4,6.84,24.7,61,1010.12,0,0,0,0,0.027847
2018/02/20 03:18:00.002,n,149,0.36,0,1.08,24.7,61.2,1010.22,0,0,0,0,0.027847
2018/02/20 03:19:00.000,n,161,2.88,2.88,3.24,24.7,61.4,1010.22,0,0,0,0,0.028725
2018/02/20 03:20:00.000,n,272,5.04,4.32,7.92,24.7,61.6,1010.22,0,0,0,0,0.025215
2018/02/20 03:21:00.000,n,265,6.48,2.88,8.28,24.6,61.6,1010.22,0,0,0,0,0.02697
2018/02/20 03:22:00.000,n,235,6.12,5.4,7.2,24.6,61.7,1010.32,0,0,0,0,0.02697
2018/02/20 03:23:00.005,n,225,2.52,2.16,3.24,24.5,61.8,1010.32,0,0,0,0,0.028725
2018/02/20 03:24:00.004,n,228,2.88,2.16,3.6,24.5,62,1010.32,0,0,0,0,0.02697
2018/02/20 03:25:00.001,n,243,4.32,3.96,5.04,24.5,62.3,1010.42,0,0,0,0,0.027847
2018/02/20 03:26:00.000,n,275,2.88,2.52,3.24,24.5,62.4,1010.42,0,0,0,0,0.031319
2018/02/20 03:27:00.013,n,255,7.2,6.12,9.36,24.4,63.1,1010.42,0,0,0,0,0.028725
2018/02/20 03:28:00.000,n,237,5.04,4.68,5.76,24.4,62.3,1010.42,0,0,0,0,0.028725
2018/02/20 03:29:00.000,n,242,2.52,1.8,3.24,24.4,62.8,1010.32,0,0,0,0,0.029564
2018/02/20 03:30:00.000,n,208,2.52,2.16,2.88,24.3,62.5,1010.32,0,0,0,0,0.029564
2018/02/20 03:31:00.003,n,199,1.8,1.44,1.8,24.3,63.5,1010.32,0,0,0,0,0.026093
2018/02/20 03:32:00.000,n,175,1.08,0.36,2.16,24.3,62.8,1010.32,0,0,0,0,0.029564
2018/02/20 03:33:00.000,n,135,5.4,5.04,6.48,24.3,62.6,1010.32,0,0,0,0,0.02697
2018/02/20 03:34:00.011,n,216,2.88,1.44,3.96,24.3,62.5,1010.32,0,0,0,0,0.026093
2018/02/20 03:35:00.009,n,155,4.68,2.16,7.2,24.3,62.4,1010.32,0,0,0,0,0.02697
2018/02/20 03:36:00.006,n,161,3.6,3.24,4.68,24.3,62.5,1010.32,0,0,0,0,0.033073
2018/02/20 03:37:00.000,n,188,3.24,2.88,3.6,24.3,62.6,1010.32,0,0,0,0,0.026093
2018/02/20 03:38:00.000,n,239,2.88,2.52,2.88,24.3,62.6,1010.32,0,0,0,0,0.02697
2018/02/20 03:39:00.000,n,278,1.08,0.72,1.8,24.3,62.7,1010.32,0,0,0,0,0.024376
2018/02/20 03:40:00.000,n,156,6.84,5.76,7.56,24.3,62.6,1010.32,0,0,0,0,0.024376
2018/02/20 03:41:00.007,n,268,3.6,3.24,3.96,24.2,62.7,1010.32,0,0,0,0,0.030441
2018/02/20 03:42:00.005,n,315,1.8,1.8,2.52,24.3,63.8,1010.32,0,0,0,0,0.024376
2018/02/20 03:43:00.002,n,231,2.52,1.44,3.6,24.2,64,1010.32,0,0,0,0,0.022621
2018/02/20 03:44:00.000,n,274,2.88,2.16,3.96,24.2,63.3,1010.32,0,0,0,0,0.022621
2018/02/20 03:45:00.014,n,110,3.96,2.16,5.04,24.2,62.9,1010.32,0,0,0,0,0.028725
2018/02/20 03:46:00.000,n,273,4.68,2.52,6.12,24.1,63.3,1010.32,0,0,0,0,0.029564
2018/02/20 03:47:00.000,n,7,1.08,0.36,1.44,24.1,63.8,1010.32,0,0,0,0,0.029564
2018/02/20 03:48:00.005,n,209,0.72,0.36,0.72,24.1,63.3,1010.32,0,0,0,0,0.023499
2018/02/20 03:49:00.002,n,211,3.24,2.88,3.24,24.1,63.3,1010.32,0,0,0,0,0.022621
2018/02/20 03:50:00.000,n,171,3.96,2.88,5.4,24.1,63.2,1010.42,0,0,0,0,0.022621
2018/02/20 03:51:00.000,n,167,6.48,5.04,6.84,24.1,63.3,1010.42,0,0,0,0,0.022621
2018/02/20 03:52:00.010,n,238,4.32,3.24,5.04,24.1,63.6,1010.42,0,0,0,0,0.023499
2018/02/20 03:53:00.007,n,242,2.88,2.16,3.6,24.1,63.3,1010.42,0,0,0,0,0.028725
2018/02/20 03:54:00.004,n,235,3.6,2.52,4.32,24.1,63,1010.42,0,0,0,0,0.023499
2018/02/20 03:55:00.002,n,176,2.16,1.8,2.52,24.1,63.2,1010.42,0,0,0,0,0.021782
2018/02/20 03:56:00.000,n,267,4.32,3.96,5.04,24.1,63.9,1010.52,0,0,0,0,0.023499
2018/02/20 03:57:00.000,n,279,3.6,3.24,4.32,24.1,64.300004,1010.52,0,0,0,0,0.022621
2018/02/20 03:58:00.000,n,264,2.88,2.52,3.24,24.1,63.7,1010.52,0,0,0,0,0.022621
2018/02/20 03:59:00.006,n,132,5.04,4.68,5.4,24,63.5,1010.52,0,0,0,0,0.022621
2018/02/20 04:00:00.004,n,205,1.8,0.36,3.24,24,63.5,1010.52,0,0,0,0,0.017395
2018/02/20 04:01:00.000,n,163,1.44,0.72,2.52,24,63.5,1010.52,0,0,0,0,0.023499
2018/02/20 04:02:00.014,n,217,3.96,3.24,4.68,24,63.4,1010.52,0,0,0,0,0.027847
2018/02/20 04:03:00.011,n,202,3.24,2.88,3.6,24,63.5,1010.52,0,0,0,0,0.020866
2018/02/20 04:04:00.000,n,170,2.52,2.16,3.24,24,63.2,1010.42,0,0,0,0,0.01915
2018/02/20 04:05:00.000,n,183,1.8,1.08,1.8,24,63.4,1010.42,0,0,0,0,0.016556
2018/02/20 04:06:00.002,n,26,0.72,0.36,1.08,24,63.3,1010.52,0,0,0,0,0.027847
2018/02/20 04:07:00.000,n,111,1.8,0.72,2.52,24,63.4,1010.52,0,0,0,0,0.01915
2018/02/20 04:08:00.000,n,274,0.36,0,1.08,24,63.8,1010.52,0,0,0,0,0.019989
2018/02/20 04:09:00.008,n,262,1.8,1.44,1.8,24,64,1010.52,0,0,0,0,0.01915
2018/02/20 04:10:00.005,n,281,4.68,2.88,6.12,24,63.9,1010.52,0,0,0,0,0.028725
2018/02/20 04:11:00.002,n,246,3.24,2.88,3.24,24,63.8,1010.62,0,0,0,0,0.025253
2018/02/20 04:12:00.015,n,197,1.44,0.36,2.52,24,63.5,1010.62,0,0,0,0,0.033913
2018/02/20 04:13:00.000,n,91,2.52,0.72,4.68,24,63.3,1010.52,0,0,0,0,0.030479
2018/02/20 04:14:00.000,n,245,5.04,4.68,5.76,23.9,64.1,1010.62,0,0,0,0,0.027847
2018/02/20 04:15:00.000,n,112,1.8,1.44,2.52,23.9,63.5,1010.62,0,0,0,0,0.028687
2018/02/20 04:16:00.004,n,174,4.68,3.96,6.12,23.9,63.6,1010.62,0,0,0,0,0.030479
2018/02/20 04:17:00.001,n,264,4.32,3.96,4.68,23.9,63.8,1010.62,0,0,0,0,0.025253
2018/02/20 04:18:00.000,n,254,1.8,0.36,2.88,23.9,64.1,1010.62,0,0,0,0,0.030479
2018/02/20 04:19:00.000,n,165,3.6,2.52,4.32,23.9,64.1,1010.62,0,0,0,0,0.02697
2018/02/20 04:20:00.010,n,175,11.88,9.72,12.96,23.9,64.1,1010.62,0,0,0,0,0.033073
2018/02/20 04:21:00.007,n,169,1.8,1.08,2.88,23.9,64.199996,1010.72,0,0,0,0,0.024338
2018/02/20 04:22:00.000,n,261,3.96,3.24,5.04,23.9,64.699996,1010.72,0,0,0,0,0.025253
2018/02/20 04:23:00.001,n,257,2.88,2.52,3.24,23.9,64.699996,1010.72,0,0,0,0,0.02697
2018/02/20 04:24:00.000,n,98,1.44,0.72,2.16,23.9,64.699996,1010.72,0,0,0,0,0.02697
2018/02/20 04:25:00.000,n,248,4.32,2.88,5.76,23.9,65,1010.62,0,0,0,0,0.032196
2018/02/20 04:26:00.000,n,121,3.6,3.24,3.6,23.9,64.9,1010.72,0,0,0,0,0.023499
2018/02/20 04:27:00.006,n,172,8.28,5.76,11.16,23.9,64.9,1010.72,0,0,0,0,0.027847
2018/02/20 04:28:00.003,n,163,6.48,5.04,6.84,23.9,64.9,1010.72,0,0,0,0,0.026093
2018/02/20 04:29:00.000,n,165,4.32,1.8,6.48,23.8,64.9,1010.72,0,0,0,0,0.025253
2018/02/20 04:30:00.013,n,225,6.12,5.04,7.2,23.8,65,1010.72,0,0,0,0,0.026093
2018/02/20 04:31:00.000,n,161,3.96,3.24,4.68,23.8,65.1,1010.72,0,0,0,0,0.026093
2018/02/20 04:32:00.000,n,170,6.84,6.48,8.28,23.8,65.1,1010.72,0,0,0,0,0.026093
2018/02/20 04:33:00.005,n,236,6.48,5.04,8.64,23.8,65.1,1010.72,0,0,0,0,0.02697
2018/02/20 04:34:00.001,n,245,1.8,0.72,2.52,23.8,65.300004,1010.72,0,0,0,0,0.028687
2018/02/20 04:35:00.000,n,302,3.24,2.16,4.32,23.8,65.5,1010.72,0,0,0,0,0.024338
2018/02/20 04:36:00.000,n,169,3.96,2.88,4.68,23.8,65.300004,1010.72,0,0,0,0,0.031319
2018/02/20 04:37:00.010,n,251,3.24,2.16,4.32,23.8,65.9,1010.82,0,0,0,0,0.026093
2018/02/20 04:38:00.007,n,192,7.2,6.48,8.28,23.8,65.4,1010.82,0,0,0,0,0.02697
2018/02/20 04:39:00.005,n,247,5.04,3.96,5.76,23.8,65.5,1010.82,0,0,0,0,0.021744
2018/02/20 04:40:00.000,n,243,5.4,4.68,6.48,23.8,65.5,1010.82,0,0,0,0,0.021744
2018/02/20 04:41:00.000,n,212,4.68,3.96,5.04,23.8,65.6,1010.82,0,0,0,0,0.028687
2018/02/20 04:42:00.000,n,217,2.88,1.8,3.6,23.8,65.699996,1010.92,0,0,0,0,0.022621
2018/02/20 04:43:00.000,n,242,2.88,2.16,3.24,23.8,65.800004,1010.92,0,0,0,0,0.021744
2018/02/20 04:44:00.009,n,271,2.88,1.08,5.4,23.8,66.800004,1010.92,0,0,0,0,0.022621
2018/02/20 04:45:00.006,n,236,4.68,3.96,5.04,23.8,66.1,1011.02,0,0,0,0,0.026093
2018/02/20 04:46:00.002,n,247,3.6,3.6,3.96,23.7,66.1,1011.02,0,0,0,0,0.025253
2018/02/20 04:47:00.000,n,228,2.88,2.16,3.96,23.7,66.5,1011.02,0,0,0,0,0.022621
2018/02/20 04:48:00.014,n,256,3.24,2.88,3.6,23.7,66.5,1011.02,0,0,0,0,0.020905
2018/02/20 04:49:00.000,n,266,4.68,3.96,5.04,23.7,66.5,1011.02,0,0,0,0,0.020905
2018/02/20 04:50:00.000,n,264,4.68,4.32,5.04,23.7,66.5,1011.02,0,0,0,0,0.022621
2018/02/20 04:51:00.005,n,268,7.2,6.84,7.2,23.7,66.6,1011.02,0,0,0,0,0.023499
2018/02/20 04:52:00.002,n,235,5.04,3.96,5.4,23.7,67.6,1011.02,0,0,0,0,0.022621
2018/02/20 04:53:00.000,n,243,3.6,2.16,4.68,23.7,67.8,1011.02,0,0,0,0,0.022621
2018/02/20 04:54:00.000,n,259,7.2,6.48,7.92,23.7,67.6,1011.12,0,0,0,0,0.025253